Find Starlink 35915

NORAD ID: 66521 Int'l Des: 2025-265 Owner: SPXS Country: US Constellation: starlink operational
LEOCIRCULAR

Live Position

Loading 3D Globe...

About Starlink 35915

Description loading...

Upcoming Passes

Passes for default location (London). Set your location on the main map for personalized predictions.

Altitude History

Loading altitude history...

Two-Line Element Set

1 66521U 25265F 26106.35804911 .00013698 00000-0 50615-3 0 9993
2 66521 43.0016 65.2643 0001134 258.8856 101.1868 15.27593533 22870
Epoch: Apr 16, 2026 • Age: 24 hours

Current Status

Altitude 482.9 km
Velocity 7.63 km/s
Sub-Earth Point -2.28°S, 97.49°W
Launch Date Nov 19, 2025
Age 0.4 years
Type internet

Technical Details

Classification Payload
Mass 575.00 kg
Dry Mass 530.00 kg
Total Mass 575.00 kg
Length 0.30 m
Diameter 4.10 m
Span 29.00 m
Shape Box + pan
Manufacturer SPXS
Bus Type Starlink V2MO
Phase Status In Orbit
Owner/State SPXS/US

Most Searched